TimeEST,TemperatureF,Dew PointF,Humidity,Sea Level PressureIn,VisibilityMPH,Wind Direction,Wind SpeedMPH,Gust SpeedMPH,PrecipitationIn,Events,Conditions,WindDirDegrees,DateUTC
12:15 AM,30.2,24.8,80,30.16,3.0,WNW,17.3,25.3,N/A,,Overcast,290,2012-11-28 05:15:00
12:35 AM,30.2,24.8,80,30.16,3.0,West,15.0,-,N/A,,Overcast,270,2012-11-28 05:35:00
12:55 AM,30.2,24.8,80,30.16,2.5,West,12.7,-,N/A,,Overcast,270,2012-11-28 05:55:00
1:15 AM,30.2,26.6,86,30.16,1.2,West,16.1,20.7,N/A,,Overcast,280,2012-11-28 06:15:00
1:35 AM,30.2,26.6,86,30.15,2.0,West,12.7,-,N/A,,Overcast,280,2012-11-28 06:35:00
1:55 AM,30.2,24.8,80,30.15,8.0,West,12.7,-,N/A,,Overcast,270,2012-11-28 06:55:00
2:15 AM,30.2,24.8,80,30.15,10.0,West,12.7,20.7,N/A,,Overcast,270,2012-11-28 07:15:00
2:35 AM,32.0,21.2,64,30.15,10.0,WNW,15.0,-,N/A,,Overcast,290,2012-11-28 07:35:00
2:55 AM,32.0,21.2,64,30.15,10.0,WNW,11.5,-,N/A,,Overcast,290,2012-11-28 07:55:00
3:15 AM,32.0,21.2,64,30.16,10.0,WNW,15.0,-,N/A,,Overcast,290,2012-11-28 08:15:00
3:35 AM,33.8,21.2,60,30.16,10.0,WNW,12.7,-,N/A,,Overcast,300,2012-11-28 08:35:00
3:55 AM,32.0,21.2,64,30.16,10.0,WNW,13.8,-,N/A,,Overcast,300,2012-11-28 08:55:00
4:15 AM,32.0,21.2,64,30.16,10.0,WNW,16.1,-,N/A,,Overcast,300,2012-11-28 09:15:00
4:35 AM,32.0,23.0,69,30.17,10.0,WNW,12.7,-,N/A,,Overcast,300,2012-11-28 09:35:00
4:55 AM,32.0,21.2,64,30.17,10.0,NW,12.7,19.6,N/A,,Overcast,310,2012-11-28 09:55:00
5:35 AM,32.0,21.2,64,30.18,10.0,NW,10.4,-,N/A,,Overcast,310,2012-11-28 10:35:00
5:55 AM,32.0,21.2,64,30.19,10.0,NW,10.4,-,N/A,,Overcast,310,2012-11-28 10:55:00
6:15 AM,32.0,19.4,60,30.19,10.0,WNW,13.8,-,N/A,,Mostly Cloudy,300,2012-11-28 11:15:00
6:35 AM,32.0,21.2,64,30.20,10.0,NW,15.0,18.4,N/A,,Overcast,310,2012-11-28 11:35:00
6:55 AM,32.0,21.2,64,30.20,10.0,NW,12.7,18.4,N/A,,Overcast,310,2012-11-28 11:55:00
7:15 AM,32.0,19.4,60,30.20,10.0,WNW,11.5,16.1,N/A,,Overcast,300,2012-11-28 12:15:00
7:35 AM,32.0,19.4,60,30.21,10.0,WNW,12.7,17.3,N/A,,Overcast,300,2012-11-28 12:35:00
7:55 AM,32.0,21.2,64,30.22,10.0,WNW,13.8,-,N/A,,Overcast,300,2012-11-28 12:55:00
8:15 AM,32.0,21.2,64,30.23,10.0,WNW,12.7,-,N/A,,Overcast,300,2012-11-28 13:15:00
8:35 AM,32.0,21.2,64,30.23,10.0,WNW,12.7,-,N/A,,Overcast,300,2012-11-28 13:35:00
8:55 AM,32.0,19.4,60,30.25,10.0,WNW,16.1,21.9,N/A,,Overcast,300,2012-11-28 13:55:00
9:15 AM,32.0,19.4,60,30.25,10.0,WNW,13.8,23.0,N/A,,Overcast,300,2012-11-28 14:15:00
9:35 AM,32.0,19.4,60,30.26,10.0,NW,15.0,18.4,N/A,,Overcast,310,2012-11-28 14:35:00
9:55 AM,30.2,17.6,60,30.26,10.0,NW,11.5,-,N/A,,Overcast,310,2012-11-28 14:55:00
10:15 AM,30.2,17.6,60,30.27,10.0,WNW,11.5,17.3,N/A,,Overcast,300,2012-11-28 15:15:00
10:35 AM,30.2,17.6,60,30.27,10.0,NW,10.4,19.6,N/A,,Overcast,310,2012-11-28 15:35:00
10:55 AM,30.2,19.4,64,30.28,10.0,WNW,17.3,-,N/A,,Overcast,290,2012-11-28 15:55:00
11:15 AM,30.2,17.6,60,30.28,10.0,NW,12.7,18.4,N/A,,Overcast,310,2012-11-28 16:15:00
11:35 AM,30.2,17.6,60,30.29,10.0,WNW,13.8,-,N/A,,Overcast,290,2012-11-28 16:35:00
11:55 AM,30.2,19.4,64,30.29,10.0,WNW,15.0,-,N/A,,Overcast,290,2012-11-28 16:55:00
12:15 PM,30.2,17.6,60,30.28,10.0,WNW,15.0,-,N/A,,Overcast,300,2012-11-28 17:15:00
12:35 PM,30.2,19.4,64,30.28,10.0,WNW,12.7,18.4,N/A,,Overcast,290,2012-11-28 17:35:00
12:55 PM,30.2,17.6,60,30.28,10.0,WNW,12.7,-,N/A,,Overcast,300,2012-11-28 17:55:00
1:35 PM,30.2,17.6,60,30.28,10.0,WNW,11.5,-,N/A,,Overcast,300,2012-11-28 18:35:00
1:55 PM,30.2,17.6,60,30.29,10.0,West,12.7,-,N/A,,Overcast,280,2012-11-28 18:55:00
2:15 PM,30.2,19.4,64,30.28,10.0,WNW,13.8,-,N/A,,Overcast,290,2012-11-28 19:15:00
2:35 PM,30.2,17.6,60,30.28,10.0,West,12.7,-,N/A,,Overcast,280,2012-11-28 19:35:00
2:55 PM,30.2,19.4,64,30.27,10.0,West,13.8,18.4,N/A,,Mostly Cloudy,280,2012-11-28 19:55:00
3:15 PM,30.2,17.6,60,30.27,10.0,West,11.5,-,N/A,,Mostly Cloudy,270,2012-11-28 20:15:00
3:35 PM,30.2,17.6,60,30.26,10.0,West,11.5,-,N/A,,Mostly Cloudy,270,2012-11-28 20:35:00
3:55 PM,32.0,19.4,60,30.26,10.0,West,10.4,-,N/A,,Overcast,260,2012-11-28 20:55:00
4:15 PM,32.0,19.4,60,30.25,10.0,West,8.1,-,N/A,,Mostly Cloudy,260,2012-11-28 21:15:00
4:35 PM,32.0,19.4,60,30.26,10.0,West,8.1,-,N/A,,Mostly Cloudy,260,2012-11-28 21:35:00
4:55 PM,32.0,17.6,55,30.26,10.0,West,8.1,-,N/A,,Scattered Clouds,260,2012-11-28 21:55:00
5:15 PM,30.2,19.4,64,30.25,10.0,West,4.6,-,N/A,,Clear,260,2012-11-28 22:15:00
5:35 PM,30.2,17.6,60,30.25,10.0,West,8.1,-,N/A,,Partly Cloudy,260,2012-11-28 22:35:00
5:55 PM,32.0,19.4,60,30.25,10.0,West,6.9,-,N/A,,Scattered Clouds,260,2012-11-28 22:55:00
6:15 PM,32.0,19.4,60,30.25,10.0,West,5.8,-,N/A,,Partly Cloudy,270,2012-11-28 23:15:00
6:35 PM,33.8,19.4,56,30.25,10.0,West,4.6,-,N/A,,Clear,260,2012-11-28 23:35:00
6:55 PM,30.2,17.6,60,30.24,10.0,West,5.8,-,N/A,,Clear,270,2012-11-28 23:55:00
7:15 PM,33.8,19.4,56,30.24,10.0,West,5.8,-,N/A,,Clear,260,2012-11-29 00:15:00
7:35 PM,33.8,19.4,56,30.24,10.0,West,8.1,-,N/A,,Clear,260,2012-11-29 00:35:00
7:55 PM,33.8,17.6,52,30.24,10.0,West,8.1,-,N/A,,Clear,260,2012-11-29 00:55:00
8:15 PM,33.8,19.4,56,30.24,10.0,West,9.2,-,N/A,,Clear,260,2012-11-29 01:15:00
8:35 PM,35.6,19.4,52,30.24,10.0,WSW,8.1,-,N/A,,Clear,250,2012-11-29 01:35:00
8:55 PM,35.6,19.4,52,30.23,10.0,West,8.1,-,N/A,,Clear,260,2012-11-29 01:55:00
9:15 PM,28.4,15.8,59,30.23,10.0,ESE,3.5,-,N/A,,Clear,110,2012-11-29 02:15:00
9:35 PM,23.0,15.8,74,30.23,10.0,ESE,5.8,-,N/A,,Clear,110,2012-11-29 02:35:00
9:55 PM,23.0,15.8,74,30.22,10.0,East,4.6,-,N/A,,Clear,100,2012-11-29 02:55:00
10:15 PM,24.8,17.6,74,30.21,10.0,East,6.9,-,N/A,,Clear,100,2012-11-29 03:15:00
10:35 PM,23.0,17.6,80,30.20,10.0,East,6.9,-,N/A,,Clear,90,2012-11-29 03:35:00
10:55 PM,24.8,17.6,74,30.20,10.0,East,5.8,-,N/A,,Clear,100,2012-11-29 03:55:00
11:15 PM,24.8,19.4,80,30.19,10.0,East,4.6,-,N/A,,Clear,90,2012-11-29 04:15:00
11:35 PM,24.8,17.6,74,30.19,10.0,East,4.6,-,N/A,,Clear,90,2012-11-29 04:35:00
11:55 PM,24.8,17.6,74,30.20,10.0,East,4.6,-,N/A,,Clear,90,2012-11-29 04:55:00